GPS BIIR-13 (PRN 02)

Last updated on Sat Dec 13 2025 00:03:17 GMT+0000 (Coordinated Universal Time)

1 28474U 04045A 25345.83983661 -.00000087 00000+0 00000+0 0 9995 2 28474 55.2411 332.4419 0170746 309.2085 53.2722 2.00569463154672
UTC large
Height (km)
Speed (km/s)
/
Latitude / Longitude
Inclination (degrees)
Orbital Period (minutes)
Azimuth
Elevation
Range (km)
Doppler Factor

Next 0 passes for location: London (51.5072 / 0.1276)

Sorry there are no passes over London.